Radiation Dose at Monitoring Post of Fukushima Daini Nuclear Power Station
Date,Time,MP-1(microSv/h),MP-2(microSv/h),MP-3(microSv/h),MP-4(microSv/h),MP-5(microSv/h),MP-6(microSv/h),MP-7(microSv/h),Wind Direction,Wind Velocity(m/s),Rain
2021/11/09,00:00,0.161,0.147,0.228,0.221,0.226,0.124,0.079,-,-,No
2021/11/09,00:10,0.160,0.146,0.229,0.222,0.227,0.124,0.079,-,-,Yes
2021/11/09,00:20,0.160,0.146,0.228,0.222,0.225,0.124,0.079,-,-,Yes
2021/11/09,00:30,0.160,0.147,0.228,0.221,0.228,0.125,0.078,-,-,Yes
2021/11/09,00:40,0.161,0.147,0.228,0.221,0.226,0.124,0.079,-,-,No
2021/11/09,00:50,0.160,0.147,0.228,0.221,0.227,0.125,0.079,-,-,No
2021/11/09,01:00,0.161,0.146,0.227,0.220,0.226,0.124,0.079,-,-,Yes
2021/11/09,01:10,0.160,0.147,0.229,0.222,0.228,0.124,0.080,-,-,Yes
2021/11/09,01:20,0.161,0.145,0.224,0.218,0.224,0.123,0.079,-,-,Yes
2021/11/09,01:30,0.159,0.146,0.226,0.219,0.225,0.122,0.079,-,-,Yes
2021/11/09,01:40,0.160,0.145,0.226,0.218,0.226,0.123,0.079,-,-,Yes
2021/11/09,01:50,0.160,0.146,0.225,0.219,0.225,0.124,0.079,-,-,Yes
2021/11/09,02:00,0.161,0.147,0.225,0.218,0.224,0.123,0.079,-,-,Yes
2021/11/09,02:10,0.159,0.145,0.225,0.218,0.226,0.123,0.079,-,-,Yes
2021/11/09,02:20,0.161,0.146,0.225,0.219,0.226,0.123,0.078,-,-,Yes
2021/11/09,02:30,0.160,0.145,0.225,0.217,0.225,0.123,0.078,-,-,Yes
2021/11/09,02:40,0.160,0.146,0.226,0.219,0.225,0.123,0.078,-,-,No
2021/11/09,02:50,0.160,0.145,0.223,0.218,0.225,0.123,0.078,-,-,No
2021/11/09,03:00,0.160,0.146,0.225,0.220,0.225,0.123,0.078,-,-,Yes
2021/11/09,03:10,0.159,0.146,0.224,0.219,0.225,0.123,0.078,-,-,No
2021/11/09,03:20,0.159,0.145,0.226,0.219,0.225,0.123,0.078,-,-,No
2021/11/09,03:30,0.159,0.146,0.225,0.218,0.224,0.122,0.077,-,-,Yes
2021/11/09,03:40,0.159,0.145,0.224,0.219,0.226,0.123,0.078,-,-,No
2021/11/09,03:50,0.159,0.145,0.226,0.218,0.224,0.124,0.078,-,-,Yes
2021/11/09,04:00,0.160,0.144,0.225,0.219,0.225,0.123,0.078,-,-,Yes
2021/11/09,04:10,0.160,0.145,0.225,0.218,0.225,0.123,0.078,-,-,No
2021/11/09,04:20,0.159,0.145,0.226,0.218,0.226,0.123,0.078,-,-,No
2021/11/09,04:30,0.159,0.146,0.225,0.218,0.224,0.124,0.079,-,-,No
2021/11/09,04:40,0.160,0.145,0.225,0.218,0.225,0.123,0.079,-,-,No
2021/11/09,04:50,0.159,0.146,0.226,0.220,0.224,0.122,0.079,-,-,No
2021/11/09,05:00,0.159,0.145,0.225,0.218,0.226,0.123,0.078,-,-,No
2021/11/09,05:10,0.159,0.145,0.224,0.220,0.224,0.122,0.078,-,-,No
2021/11/09,05:20,0.158,0.146,0.225,0.218,0.225,0.122,0.077,-,-,No
2021/11/09,05:30,0.160,0.146,0.224,0.219,0.224,0.123,0.079,-,-,No
2021/11/09,05:40,0.159,0.146,0.225,0.219,0.226,0.124,0.078,-,-,No
2021/11/09,05:50,0.160,0.146,0.226,0.220,0.225,0.123,0.078,-,-,No
2021/11/09,06:00,0.159,0.145,0.226,0.218,0.226,0.123,0.079,-,-,No
2021/11/09,06:10,0.159,0.146,0.223,0.220,0.226,0.123,0.078,-,-,No
2021/11/09,06:20,0.158,0.145,0.225,0.219,0.227,0.123,0.079,-,-,No
2021/11/09,06:30,0.160,0.146,0.224,0.220,0.226,0.123,0.078,-,-,No
2021/11/09,06:40,0.159,0.145,0.225,0.219,0.225,0.123,0.078,-,-,No
2021/11/09,06:50,0.161,0.148,0.225,0.220,0.226,0.123,0.078,-,-,No
2021/11/09,07:00,0.159,0.146,0.226,0.220,0.226,0.124,0.079,-,-,Yes
2021/11/09,07:10,0.160,0.146,0.226,0.220,0.225,0.124,0.079,-,-,Yes
2021/11/09,07:20,0.160,0.147,0.226,0.220,0.226,0.124,0.079,-,-,Yes
2021/11/09,07:30,0.162,0.146,0.227,0.220,0.225,0.123,0.078,-,-,No
2021/11/09,07:40,0.160,0.147,0.226,0.221,0.227,0.124,0.080,-,-,Yes
2021/11/09,07:50,0.160,0.146,0.227,0.220,0.224,0.124,0.079,-,-,No
2021/11/09,08:00,0.160,0.147,0.225,0.221,0.225,0.124,0.079,-,-,Yes
2021/11/09,08:10,0.160,0.146,0.225,0.217,0.225,0.123,0.079,-,-,Yes
2021/11/09,08:20,0.160,0.147,0.225,0.220,0.225,0.123,0.079,-,-,Yes
2021/11/09,08:30,0.160,0.146,0.224,0.219,0.224,0.124,0.079,-,-,Yes
2021/11/09,08:40,0.157,0.146,0.220,0.213,0.222,0.122,0.079,-,-,Yes
2021/11/09,08:50,0.158,0.145,0.220,0.212,0.223,0.121,0.079,-,-,Yes
2021/11/09,09:00,0.158,0.145,0.221,0.215,0.224,0.122,0.080,-,-,Yes
2021/11/09,09:10,0.159,0.145,0.222,0.214,0.225,0.122,0.079,-,-,Yes
2021/11/09,09:20,0.157,0.144,0.223,0.217,0.224,0.122,0.080,-,-,Yes
2021/11/09,09:30,0.159,0.145,0.222,0.216,0.225,0.121,0.079,-,-,Yes
2021/11/09,09:40,0.157,0.144,0.221,0.216,0.223,0.122,0.079,-,-,Yes
2021/11/09,09:50,0.157,0.144,0.223,0.215,0.225,0.121,0.078,-,-,No
2021/11/09,10:00,0.156,0.145,0.220,0.217,0.223,0.120,0.079,-,-,Yes
2021/11/09,10:10,0.157,0.143,0.222,0.215,0.223,0.122,0.078,-,-,No
2021/11/09,10:20,0.155,0.143,0.221,0.217,0.223,0.120,0.078,-,-,No
2021/11/09,10:30,0.156,0.142,0.222,0.216,0.222,0.121,0.077,-,-,No
2021/11/09,10:40,0.157,0.144,0.221,0.216,0.225,0.120,0.078,-,-,No
2021/11/09,10:50,0.155,0.143,0.222,0.217,0.222,0.120,0.078,-,-,No
2021/11/09,11:00,0.156,0.143,0.223,0.214,0.224,0.121,0.077,-,-,Yes
2021/11/09,11:10,0.155,0.143,0.219,0.217,0.223,0.119,0.078,-,-,Yes
2021/11/09,11:20,0.155,0.143,0.222,0.215,0.223,0.120,0.077,-,-,Yes
2021/11/09,11:30,0.156,0.143,0.217,0.215,0.222,0.119,0.077,-,-,Yes
2021/11/09,11:40,0.154,0.143,0.220,0.213,0.221,0.120,0.078,-,-,Yes
2021/11/09,11:50,0.156,0.144,0.218,0.215,0.225,0.120,0.077,-,-,Yes
2021/11/09,12:00,0.154,0.142,0.221,0.215,0.222,0.119,0.078,-,-,Yes
2021/11/09,12:10,0.156,0.143,0.220,0.214,0.222,0.119,0.077,-,-,Yes
2021/11/09,12:20,0.155,0.143,0.219,0.215,0.221,0.120,0.077,-,-,No
2021/11/09,12:30,0.154,0.142,0.220,0.214,0.222,0.119,0.077,-,-,Yes
2021/11/09,12:40,0.155,0.142,0.219,0.216,0.223,0.118,0.078,-,-,Yes
2021/11/09,12:50,0.154,0.142,0.220,0.215,0.221,0.118,0.077,-,-,Yes
2021/11/09,13:00,0.155,0.143,0.219,0.216,0.223,0.120,0.078,-,-,Yes
2021/11/09,13:10,0.153,0.141,0.218,0.210,0.219,0.118,0.077,-,-,Yes
2021/11/09,13:20,0.148,0.140,0.208,0.202,0.218,0.117,0.077,-,-,Yes
2021/11/09,13:30,0.148,0.141,0.214,0.208,0.219,0.119,0.079,-,-,Yes
2021/11/09,13:40,0.152,0.144,0.215,0.210,0.222,0.121,0.080,-,-,Yes
2021/11/09,13:50,0.151,0.143,0.217,0.212,0.222,0.121,0.081,-,-,Yes
2021/11/09,14:00,0.150,0.144,0.212,0.207,0.221,0.120,0.080,-,-,Yes
2021/11/09,14:10,0.149,0.143,0.213,0.209,0.222,0.120,0.082,-,-,Yes
2021/11/09,14:20,0.152,0.144,0.214,0.211,0.222,0.121,0.081,-,-,Yes
2021/11/09,14:30,0.151,0.144,0.217,0.213,0.223,0.121,0.081,-,-,Yes
2021/11/09,14:40,0.151,0.143,0.215,0.212,0.221,0.121,0.081,-,-,Yes
2021/11/09,14:50,0.152,0.143,0.217,0.211,0.223,0.121,0.081,-,-,Yes
2021/11/09,15:00,0.149,0.144,0.215,0.213,0.222,0.120,0.080,-,-,Yes
2021/11/09,15:10,0.150,0.143,0.215,0.211,0.221,0.119,0.080,-,-,Yes
2021/11/09,15:20,0.150,0.142,0.213,0.209,0.220,0.118,0.080,-,-,Yes
2021/11/09,15:30,0.150,0.142,0.215,0.213,0.223,0.119,0.079,-,-,Yes
2021/11/09,15:40,0.148,0.143,0.214,0.210,0.221,0.118,0.080,-,-,Yes
2021/11/09,15:50,0.150,0.141,0.215,0.212,0.223,0.119,0.079,-,-,Yes
2021/11/09,16:00,0.149,0.142,0.214,0.210,0.222,0.119,0.078,-,-,Yes
2021/11/09,16:10,0.152,0.141,0.216,0.214,0.221,0.118,0.079,-,-,Yes
2021/11/09,16:20,0.151,0.141,0.215,0.213,0.222,0.119,0.078,-,-,Yes
2021/11/09,16:30,0.151,0.141,0.216,0.214,0.220,0.118,0.078,-,-,Yes
2021/11/09,16:40,0.150,0.141,0.215,0.209,0.221,0.118,0.078,-,-,Yes
2021/11/09,16:50,0.150,0.141,0.213,0.210,0.220,0.118,0.078,-,-,Yes
2021/11/09,17:00,0.150,0.143,0.213,0.208,0.221,0.119,0.078,-,-,Yes
2021/11/09,17:10,0.150,0.142,0.213,0.210,0.219,0.118,0.078,-,-,Yes
2021/11/09,17:20,0.151,0.142,0.214,0.210,0.222,0.118,0.079,-,-,Yes
2021/11/09,17:30,0.149,0.143,0.213,0.212,0.221,0.119,0.078,-,-,Yes
2021/11/09,17:40,0.150,0.142,0.215,0.210,0.222,0.118,0.079,-,-,Yes
2021/11/09,17:50,0.149,0.142,0.213,0.213,0.221,0.119,0.079,-,-,Yes
2021/11/09,18:00,0.151,0.141,0.215,0.211,0.222,0.118,0.079,-,-,Yes
2021/11/09,18:10,0.150,0.142,0.213,0.212,0.222,0.118,0.079,-,-,Yes
2021/11/09,18:20,0.152,0.142,0.215,0.212,0.222,0.118,0.079,-,-,Yes
2021/11/09,18:30,0.149,0.141,0.210,0.209,0.220,0.118,0.079,-,-,Yes
2021/11/09,18:40,0.149,0.142,0.212,0.209,0.221,0.118,0.080,-,-,Yes
2021/11/09,18:50,0.150,0.143,0.212,0.210,0.223,0.120,0.080,-,-,Yes
2021/11/09,19:00,0.151,0.143,0.215,0.213,0.222,0.119,0.080,-,-,Yes
2021/11/09,19:10,0.151,0.143,0.214,0.214,0.225,0.120,0.081,-,-,Yes
2021/11/09,19:20,0.152,0.143,0.214,0.212,0.222,0.119,0.082,-,-,Yes
2021/11/09,19:30,0.151,0.145,0.216,0.213,0.226,0.120,0.081,-,-,Yes
2021/11/09,19:40,0.153,0.145,0.216,0.214,0.224,0.121,0.083,-,-,Yes
2021/11/09,19:50,0.153,0.145,0.216,0.215,0.224,0.120,0.083,-,-,Yes
2021/11/09,20:00,0.150,0.145,0.213,0.210,0.223,0.120,0.082,-,-,Yes
2021/11/09,20:10,0.148,0.144,0.213,0.213,0.223,0.120,0.083,-,-,Yes
2021/11/09,20:20,0.150,0.145,0.212,0.209,0.223,0.122,0.082,-,-,Yes
2021/11/09,20:30,0.152,0.145,0.216,0.215,0.225,0.121,0.084,-,-,Yes
2021/11/09,20:40,0.152,0.145,0.215,0.214,0.225,0.122,0.084,-,-,Yes
2021/11/09,20:50,0.153,0.146,0.218,0.216,0.225,0.121,0.083,-,-,Yes
2021/11/09,21:00,0.154,0.145,0.217,0.217,0.227,0.122,0.083,-,-,Yes
2021/11/09,21:10,0.154,0.147,0.217,0.216,0.225,0.121,0.083,-,-,Yes
2021/11/09,21:20,0.153,0.144,0.218,0.217,0.225,0.120,0.080,-,-,Yes
2021/11/09,21:30,0.152,0.143,0.217,0.217,0.224,0.120,0.082,-,-,Yes
2021/11/09,21:40,0.153,0.144,0.218,0.217,0.225,0.119,0.080,-,-,Yes
2021/11/09,21:50,0.152,0.143,0.215,0.216,0.224,0.118,0.080,-,-,Yes
2021/11/09,22:00,0.152,0.142,0.216,0.217,0.224,0.118,0.080,-,-,Yes
2021/11/09,22:10,0.152,0.141,0.216,0.214,0.222,0.119,0.080,-,-,Yes
2021/11/09,22:20,0.151,0.142,0.216,0.216,0.224,0.117,0.078,-,-,Yes
2021/11/09,22:30,0.153,0.140,0.215,0.213,0.222,0.118,0.078,-,-,No
2021/11/09,22:40,0.151,0.140,0.215,0.215,0.223,0.117,0.079,-,-,Yes
2021/11/09,22:50,0.152,0.141,0.215,0.213,0.221,0.117,0.077,-,-,Yes
2021/11/09,23:00,0.151,0.140,0.215,0.214,0.223,0.117,0.078,-,-,Yes
2021/11/09,23:10,0.152,0.141,0.216,0.213,0.221,0.117,0.076,-,-,Yes
2021/11/09,23:20,0.152,0.139,0.216,0.214,0.223,0.117,0.077,-,-,Yes
2021/11/09,23:30,0.153,0.142,0.219,0.216,0.221,0.118,0.078,-,-,Yes
2021/11/09,23:40,0.155,0.143,0.218,0.217,0.226,0.119,0.078,-,-,Yes
2021/11/09,23:50,0.157,0.146,0.221,0.218,0.226,0.122,0.081,-,-,Yes
